Online Auction of Sound, Stage, and Lighting Equipment for Sale in Orange County, CA

Lot #0103: Show Solutions 10' x 1' Aluminum Stage Truss

Bidding is closed.
High Bid:$395.00
NA
Bidding Ended: Thu, Jan 10  10:10:12 am PT
High Bidder: pixelwerks
Bid Increment: $10.00
Starting Bid: $5.00
Item Location: Fullerton, CA 92833
Item has been viewed 580 times.

Show Solutions 10' x 1' Aluminum Stage Truss

NOTE: Photos are representative of item. 

Bid Date Bid Amount Bidder
Jan 10, 2019 - 10:08:12 AM $395.00 ipixelwerks
Jan 10, 2019 - 10:08:12 AM $385.00 ilighttek
Jan 10, 2019 - 10:06:42 AM $375.00 ipixelwerks
Jan 10, 2019 - 10:06:42 AM $365.00 ilighttek
Jan 10, 2019 - 10:04:57 AM $335.00 ipixelwerks
Jan 10, 2019 - 10:04:57 AM $325.00 iJlortz2k8
Jan 10, 2019 - 10:03:48 AM $315.00 ipixelwerks
Jan 10, 2019 - 10:03:48 AM $305.00 ilighttek
Jan 10, 2019 - 10:02:07 AM $262.24 ilighttek
Jan 10, 2019 - 10:02:07 AM $252.24 ilakinetics
Jan 10, 2019 - 10:01:59 AM $220.00 ilakinetics
Jan 10, 2019 - 10:00:03 AM $210.00 ilighttek
Jan 10, 2019 - 10:00:03 AM $200.00 iTonyAlva
Jan 9, 2019 - 2:24:29 PM $185.00 ilighttek
Jan 9, 2019 - 2:24:29 PM $175.00 ivietbaytivi
Jan 9, 2019 - 12:16:17 AM $165.00 ivietbaytivi
Jan 9, 2019 - 12:13:00 AM $155.00 ilighttek
Jan 9, 2019 - 12:13:00 AM $150.00 ivietbaytivi
Jan 9, 2019 - 12:12:49 AM $130.00 ilighttek
Jan 9, 2019 - 12:12:49 AM $120.00 ivietbaytivi
Jan 8, 2019 - 10:57:49 PM $105.00 ilighttek
Jan 8, 2019 - 10:57:49 PM $100.00 ipixelwerks
Jan 8, 2019 - 1:21:03 PM $56.00 ipixelwerks
Jan 8, 2019 - 1:21:03 PM $51.00 iDano1954
Jan 8, 2019 - 12:35:51 PM $15.00 ipixelwerks
Jan 8, 2019 - 12:35:51 PM $10.00 iKurt Musser
Jan 8, 2019 - 10:11:33 AM $5.00 ipixelwerks
Click on any picture to see a larger image.